Time,TemperatureF,DewpointF,PressureIn,WindDirection,WindDirectionDegrees,WindSpeedMPH,WindSpeedGustMPH,Humidity,HourlyPrecipIn,Conditions,Clouds,dailyrainin,SoftwareType,DateUTC
2013-10-21 00:02:00,52.3,43.5,29.92,SSE,152,0.0,0.0,72,0.00,,---,0.00,VWS V14.00,2013-10-21 05:02:00,
2013-10-21 00:07:00,51.9,43.5,29.92,SSE,152,0.0,0.0,73,0.00,,---,0.00,VWS V14.00,2013-10-21 05:07:00,
2013-10-21 00:12:00,51.6,43.2,29.92,SSE,152,1.0,2.0,73,0.00,,---,0.00,VWS V14.00,2013-10-21 05:12:00,
2013-10-21 00:17:00,51.4,43.4,29.92,SSE,152,3.0,4.0,74,0.00,,---,0.00,VWS V14.00,2013-10-21 05:17:00,
2013-10-21 00:22:00,51.4,43.8,29.92,SSE,152,3.0,4.0,75,0.00,,---,0.00,VWS V14.00,2013-10-21 05:22:00,
2013-10-21 00:27:00,51.4,43.8,29.91,SSE,152,5.0,5.0,75,0.00,,---,0.00,VWS V14.00,2013-10-21 05:27:00,
2013-10-21 00:32:00,51.5,43.8,29.91,SSE,152,4.0,5.0,75,0.00,,---,0.00,VWS V14.00,2013-10-21 05:32:00,
2013-10-21 00:37:00,51.6,44.0,29.91,SSE,152,6.0,6.0,75,0.00,,---,0.00,VWS V14.00,2013-10-21 05:37:00,
2013-10-21 00:42:00,51.8,44.1,29.91,SSE,151,4.0,6.0,75,0.00,,---,0.00,VWS V14.00,2013-10-21 05:42:00,
2013-10-21 00:47:00,51.9,44.2,29.91,SSE,151,2.0,7.0,75,0.00,,---,0.00,VWS V14.00,2013-10-21 05:47:00,
2013-10-21 00:52:00,52.0,44.3,29.91,SSE,147,3.0,9.0,75,0.00,,---,0.00,VWS V14.00,2013-10-21 05:52:00,
2013-10-21 00:57:00,52.1,44.8,29.91,SE,144,4.0,10.0,76,0.00,,---,0.00,VWS V14.00,2013-10-21 05:57:00,
2013-10-21 01:02:00,52.3,44.6,29.91,SE,144,3.0,9.0,75,0.00,,---,0.00,VWS V14.00,2013-10-21 06:02:00,
2013-10-21 01:07:00,52.3,44.6,29.91,SSE,147,5.0,9.0,75,0.00,,---,0.00,VWS V14.00,2013-10-21 06:07:00,
2013-10-21 01:12:00,52.3,44.6,29.91,SSE,148,4.0,9.0,75,0.00,,---,0.00,VWS V14.00,2013-10-21 06:12:00,
2013-10-21 01:17:00,52.4,44.7,29.91,SE,146,6.0,9.0,75,0.00,,---,0.00,VWS V14.00,2013-10-21 06:17:00,
2013-10-21 01:22:00,52.5,44.8,29.91,SE,144,5.0,9.0,75,0.00,,---,0.00,VWS V14.00,2013-10-21 06:22:00,
2013-10-21 01:27:00,52.6,44.9,29.91,SE,144,5.0,7.0,75,0.00,,---,0.00,VWS V14.00,2013-10-21 06:27:00,
2013-10-21 01:32:00,52.7,45.0,29.91,SE,145,5.0,9.0,75,0.00,,---,0.00,VWS V14.00,2013-10-21 06:32:00,
2013-10-21 01:37:00,52.7,45.0,29.91,SE,146,1.0,7.0,75,0.00,,---,0.00,VWS V14.00,2013-10-21 06:37:00,
2013-10-21 01:42:00,52.6,44.9,29.91,SE,146,2.0,4.0,75,0.00,,---,0.00,VWS V14.00,2013-10-21 06:42:00,
2013-10-21 01:47:00,52.5,44.8,29.91,SE,146,2.0,3.0,75,0.00,,---,0.00,VWS V14.00,2013-10-21 06:47:00,
2013-10-21 01:52:00,52.3,44.6,29.91,SE,146,2.0,5.0,75,0.00,,---,0.00,VWS V14.00,2013-10-21 06:52:00,
2013-10-21 01:57:00,52.1,44.4,29.91,SE,146,0.0,3.0,75,0.00,,---,0.00,VWS V14.00,2013-10-21 06:57:00,
2013-10-21 02:02:00,52.0,44.7,29.92,SE,146,0.0,2.0,76,0.00,,---,0.00,VWS V14.00,2013-10-21 07:02:00,
2013-10-21 02:07:00,51.8,44.5,29.92,SE,146,0.0,0.0,76,0.00,,---,0.00,VWS V14.00,2013-10-21 07:07:00,
2013-10-21 02:12:00,51.7,44.4,29.92,SE,146,2.0,5.0,76,0.00,,---,0.00,VWS V14.00,2013-10-21 07:12:00,
2013-10-21 02:17:00,51.6,44.6,29.92,SE,146,1.0,4.0,77,0.00,,---,0.00,VWS V14.00,2013-10-21 07:17:00,
2013-10-21 02:22:00,51.6,44.6,29.92,SE,146,0.0,3.0,77,0.00,,---,0.00,VWS V14.00,2013-10-21 07:22:00,
2013-10-21 02:27:00,51.6,44.6,29.92,SE,146,3.0,5.0,77,0.00,,---,0.00,VWS V14.00,2013-10-21 07:27:00,
2013-10-21 02:32:00,51.6,45.0,29.92,SE,146,3.0,5.0,78,0.00,,---,0.00,VWS V14.00,2013-10-21 07:32:00,
2013-10-21 02:37:00,51.5,44.9,29.92,SE,146,4.0,5.0,78,0.00,,---,0.00,VWS V14.00,2013-10-21 07:37:00,
2013-10-21 02:42:00,51.5,44.9,29.92,SE,146,3.0,6.0,78,0.00,,---,0.00,VWS V14.00,2013-10-21 07:42:00,
2013-10-21 02:47:00,51.5,45.2,29.92,SE,146,0.0,4.0,79,0.00,,---,0.00,VWS V14.00,2013-10-21 07:47:00,
2013-10-21 02:52:00,51.4,45.1,29.92,SE,146,0.0,3.0,79,0.00,,---,0.00,VWS V14.00,2013-10-21 07:52:00,
2013-10-21 02:57:00,51.4,45.1,29.92,SE,146,2.0,4.0,79,0.00,,---,0.00,VWS V14.00,2013-10-21 07:57:00,
2013-10-21 03:02:00,51.4,45.1,29.92,SE,146,3.0,5.0,79,0.00,,---,0.00,VWS V14.00,2013-10-21 08:02:00,
2013-10-21 03:07:00,51.4,45.5,29.93,SE,146,0.0,4.0,80,0.00,,---,0.00,VWS V14.00,2013-10-21 08:07:00,
2013-10-21 03:12:00,51.3,45.3,29.92,SE,146,2.0,5.0,80,0.00,,---,0.00,VWS V14.00,2013-10-21 08:12:00,
2013-10-21 03:17:00,51.3,45.3,29.93,SE,146,3.0,5.0,80,0.00,,---,0.00,VWS V14.00,2013-10-21 08:17:00,
2013-10-21 03:22:00,51.3,45.7,29.93,SE,146,0.0,5.0,81,0.00,,---,0.00,VWS V14.00,2013-10-21 08:22:00,
2013-10-21 03:27:00,51.3,45.7,29.93,SE,146,0.0,0.0,81,0.00,,---,0.00,VWS V14.00,2013-10-21 08:27:00,
2013-10-21 03:32:00,51.4,45.8,29.93,SE,146,2.0,4.0,81,0.00,,---,0.00,VWS V14.00,2013-10-21 08:32:00,
2013-10-21 03:37:00,51.4,45.8,29.93,SE,146,5.0,5.0,81,0.00,,---,0.00,VWS V14.00,2013-10-21 08:37:00,
2013-10-21 03:42:00,51.4,46.1,29.93,SE,146,3.0,6.0,82,0.00,,---,0.00,VWS V14.00,2013-10-21 08:42:00,
2013-10-21 03:47:00,51.4,46.1,29.92,SE,146,1.0,5.0,82,0.00,,---,0.00,VWS V14.00,2013-10-21 08:47:00,
2013-10-21 03:52:00,51.4,46.1,29.93,SE,146,0.0,4.0,82,0.00,,---,0.00,VWS V14.00,2013-10-21 08:52:00,
2013-10-21 03:57:00,51.5,46.2,29.92,SE,146,0.0,3.0,82,0.00,,---,0.00,VWS V14.00,2013-10-21 08:57:00,
2013-10-21 04:02:00,51.5,46.2,29.92,SE,146,3.0,4.0,82,0.00,,---,0.00,VWS V14.00,2013-10-21 09:02:00,
2013-10-21 04:07:00,51.6,46.6,29.91,SE,146,3.0,6.0,83,0.00,,---,0.00,VWS V14.00,2013-10-21 09:07:00,
2013-10-21 04:12:00,51.7,46.7,29.91,SE,144,0.0,9.0,83,0.00,,---,0.00,VWS V14.00,2013-10-21 09:12:00,
2013-10-21 04:17:00,51.9,46.9,29.91,SE,144,0.0,6.0,83,0.00,,---,0.00,VWS V14.00,2013-10-21 09:17:00,
2013-10-21 04:22:00,52.2,46.9,29.91,SE,144,0.0,0.0,82,0.00,,---,0.00,VWS V14.00,2013-10-21 09:22:00,
2013-10-21 04:27:00,52.2,46.9,29.92,SE,144,0.0,0.0,82,0.00,,---,0.00,VWS V14.00,2013-10-21 09:27:00,
2013-10-21 04:32:00,52.3,47.0,29.92,SE,144,0.0,0.0,82,0.00,,---,0.00,VWS V14.00,2013-10-21 09:32:00,
2013-10-21 04:37:00,52.3,47.0,29.90,SE,144,4.0,6.0,82,0.00,,---,0.00,VWS V14.00,2013-10-21 09:37:00,
2013-10-21 04:42:00,52.3,47.0,29.90,SE,144,0.0,5.0,82,0.00,,---,0.00,VWS V14.00,2013-10-21 09:42:00,
2013-10-21 04:47:00,52.4,47.4,29.91,SE,144,0.0,5.0,83,0.00,,---,0.00,VWS V14.00,2013-10-21 09:47:00,
2013-10-21 04:52:00,52.5,47.2,29.93,WSW,238,6.0,8.0,82,0.00,,---,0.00,VWS V14.00,2013-10-21 09:52:00,
2013-10-21 04:57:00,52.4,47.4,29.94,West,275,2.0,11.0,83,0.00,,---,0.00,VWS V14.00,2013-10-21 09:57:00,
2013-10-21 05:02:00,52.3,47.3,29.93,West,275,0.0,4.0,83,0.00,,---,0.00,VWS V14.00,2013-10-21 10:02:00,
2013-10-21 05:06:00,52.2,47.2,29.95,West,275,1.0,3.0,83,0.00,,---,0.00,VWS V14.00,2013-10-21 10:06:00,
2013-10-21 05:11:00,52.1,47.1,29.93,West,273,3.0,4.0,83,0.00,,---,0.00,VWS V14.00,2013-10-21 10:11:00,
2013-10-21 05:16:00,52.0,47.3,29.93,West,273,0.0,4.0,84,0.00,,---,0.00,VWS V14.00,2013-10-21 10:16:00,
2013-10-21 05:21:00,51.9,47.2,29.93,West,273,0.0,0.0,84,0.00,,---,0.00,VWS V14.00,2013-10-21 10:21:00,
2013-10-21 05:26:00,51.9,47.2,29.92,West,271,2.0,5.0,84,0.00,,---,0.00,VWS V14.00,2013-10-21 10:26:00,
2013-10-21 05:31:00,51.9,47.2,29.93,West,270,0.0,4.0,84,0.00,,---,0.00,VWS V14.00,2013-10-21 10:31:00,
2013-10-21 05:36:00,51.9,47.2,29.93,West,270,0.0,0.0,84,0.00,,---,0.00,VWS V14.00,2013-10-21 10:36:00,
2013-10-21 05:41:00,51.9,47.2,29.92,West,270,0.0,0.0,84,0.00,,---,0.00,VWS V14.00,2013-10-21 10:41:00,
2013-10-21 05:46:00,51.9,47.5,29.90,East,90,6.0,9.0,85,0.00,,---,0.00,VWS V14.00,2013-10-21 10:46:00,
2013-10-21 05:51:00,52.0,47.6,29.90,East,90,3.0,10.0,85,0.00,,---,0.00,VWS V14.00,2013-10-21 10:51:00,
2013-10-21 05:56:00,52.1,47.7,29.92,NE,49,5.0,7.0,85,0.00,,---,0.00,VWS V14.00,2013-10-21 10:56:00,
2013-10-21 06:01:00,52.1,47.4,29.93,NW,317,2.0,9.0,84,0.00,,---,0.00,VWS V14.00,2013-10-21 11:01:00,
2013-10-21 06:06:00,52.0,47.6,29.93,NW,317,0.0,3.0,85,0.00,,---,0.00,VWS V14.00,2013-10-21 11:06:00,
2013-10-21 06:11:00,51.9,47.5,29.93,NW,317,0.0,0.0,85,0.00,,---,0.00,VWS V14.00,2013-10-21 11:11:00,
2013-10-21 06:16:00,51.7,47.3,29.93,NW,317,0.0,0.0,85,0.00,,---,0.00,VWS V14.00,2013-10-21 11:16:00,
2013-10-21 06:21:00,51.5,47.2,29.94,NW,317,0.0,0.0,85,0.00,,---,0.00,VWS V14.00,2013-10-21 11:21:00,
2013-10-21 06:26:00,51.4,47.0,29.94,NW,317,1.0,1.0,85,0.00,,---,0.00,VWS V14.00,2013-10-21 11:26:00,
2013-10-21 06:31:00,51.1,46.8,29.96,NW,317,3.0,7.0,85,0.00,,---,0.00,VWS V14.00,2013-10-21 11:31:00,
2013-10-21 06:36:00,50.8,46.8,29.96,NW,317,4.0,7.0,86,0.00,,---,0.00,VWS V14.00,2013-10-21 11:36:00,
2013-10-21 06:41:00,50.5,46.5,29.96,NW,317,3.0,6.0,86,0.00,,---,0.00,VWS V14.00,2013-10-21 11:41:00,
2013-10-21 06:46:00,50.4,46.4,29.97,NW,318,3.0,5.0,86,0.00,,---,0.00,VWS V14.00,2013-10-21 11:46:00,
2013-10-21 06:51:00,50.3,46.6,29.97,NW,318,2.0,5.0,87,0.00,,---,0.00,VWS V14.00,2013-10-21 11:51:00,
2013-10-21 06:56:00,50.1,46.4,29.97,NW,318,3.0,4.0,87,0.00,,---,0.00,VWS V14.00,2013-10-21 11:56:00,
2013-10-21 07:01:00,50.0,46.3,29.97,NW,318,0.0,4.0,87,0.00,,---,0.00,VWS V14.00,2013-10-21 12:01:00,
2013-10-21 07:06:00,49.9,46.2,29.97,NW,318,0.0,0.0,87,0.00,,---,0.00,VWS V14.00,2013-10-21 12:06:00,
2013-10-21 07:11:00,49.7,46.0,29.97,NW,318,0.0,0.0,87,0.00,,---,0.00,VWS V14.00,2013-10-21 12:11:00,
2013-10-21 07:16:00,49.4,45.7,29.97,NW,318,0.0,0.0,87,0.00,,---,0.00,VWS V14.00,2013-10-21 12:16:00,
2013-10-21 07:21:00,49.2,45.8,29.97,NW,318,0.0,0.0,88,0.00,,---,0.00,VWS V14.00,2013-10-21 12:21:00,
2013-10-21 07:26:00,49.2,45.8,29.97,NW,318,0.0,0.0,88,0.00,,---,0.00,VWS V14.00,2013-10-21 12:26:00,
2013-10-21 07:31:00,49.3,45.9,29.97,NW,318,0.0,0.0,88,0.00,,---,0.00,VWS V14.00,2013-10-21 12:31:00,
2013-10-21 07:36:00,49.4,46.0,29.98,NW,318,0.0,0.0,88,0.00,,---,0.00,VWS V14.00,2013-10-21 12:36:00,
2013-10-21 07:41:00,49.4,46.0,29.98,NW,318,0.0,0.0,88,0.00,,---,0.00,VWS V14.00,2013-10-21 12:41:00,
2013-10-21 07:46:00,49.4,46.0,29.98,NW,318,0.0,0.0,88,0.00,,---,0.00,VWS V14.00,2013-10-21 12:46:00,
2013-10-21 07:51:00,49.4,46.0,29.98,NW,318,0.0,0.0,88,0.00,,---,0.00,VWS V14.00,2013-10-21 12:51:00,
2013-10-21 07:56:00,49.5,46.1,29.98,NW,318,0.0,0.0,88,0.00,,---,0.00,VWS V14.00,2013-10-21 12:56:00,
2013-10-21 08:01:00,49.5,46.1,29.98,NW,318,2.0,3.0,88,0.00,,---,0.00,VWS V14.00,2013-10-21 13:01:00,
2013-10-21 08:06:00,49.6,46.5,29.99,NW,318,3.0,4.0,89,0.00,,---,0.00,VWS V14.00,2013-10-21 13:06:00,
2013-10-21 08:11:00,49.6,46.5,29.99,NW,318,0.0,4.0,89,0.00,,---,0.00,VWS V14.00,2013-10-21 13:11:00,
2013-10-21 08:16:00,49.7,46.6,29.99,NW,318,0.0,0.0,89,0.00,,---,0.00,VWS V14.00,2013-10-21 13:16:00,
2013-10-21 08:21:00,49.8,46.7,29.98,NW,318,0.0,0.0,89,0.00,,---,0.00,VWS V14.00,2013-10-21 13:21:00,
2013-10-21 08:26:00,50.0,46.9,29.99,NW,318,0.0,0.0,89,0.00,,---,0.00,VWS V14.00,2013-10-21 13:26:00,
2013-10-21 08:31:00,50.2,47.1,29.99,NW,318,0.0,0.0,89,0.00,,---,0.00,VWS V14.00,2013-10-21 13:31:00,
2013-10-21 08:36:00,50.3,47.2,30.00,NW,318,5.0,6.0,89,0.00,,---,0.00,VWS V14.00,2013-10-21 13:36:00,
2013-10-21 08:41:00,50.5,47.4,30.00,NW,318,3.0,6.0,89,0.00,,---,0.00,VWS V14.00,2013-10-21 13:41:00,
2013-10-21 08:46:00,50.6,47.5,30.01,NW,321,4.0,9.0,89,0.00,,---,0.00,VWS V14.00,2013-10-21 13:46:00,
2013-10-21 08:51:00,50.7,47.6,30.02,NNW,338,6.0,10.0,89,0.00,,---,0.00,VWS V14.00,2013-10-21 13:51:00,
2013-10-21 08:56:00,50.8,47.7,30.01,NNE,22,12.0,13.0,89,0.00,,---,0.00,VWS V14.00,2013-10-21 13:56:00,
2013-10-21 09:01:00,50.8,47.4,30.02,NNW,346,10.0,13.0,88,0.00,,---,0.00,VWS V14.00,2013-10-21 14:01:00,
2013-10-21 09:06:00,50.8,47.1,30.01,North,5,14.0,14.0,87,0.00,,---,0.00,VWS V14.00,2013-10-21 14:06:00,
2013-10-21 09:11:00,50.7,47.0,30.01,North,355,11.0,15.0,87,0.00,,---,0.01,VWS V14.00,2013-10-21 14:11:00,
2013-10-21 09:16:00,50.5,46.8,30.03,NNW,344,4.0,9.0,87,0.11,,---,0.02,VWS V14.00,2013-10-21 14:16:00,
2013-10-21 09:21:00,50.3,46.6,30.02,NNE,16,10.0,10.0,87,0.11,,---,0.02,VWS V14.00,2013-10-21 14:21:00,
2013-10-21 09:26:00,50.0,46.6,30.03,North,5,4.0,10.0,88,0.10,,---,0.03,VWS V14.00,2013-10-21 14:26:00,
2013-10-21 09:31:00,49.9,46.5,30.03,NNE,18,5.0,11.0,88,0.06,,---,0.03,VWS V14.00,2013-10-21 14:31:00,
2013-10-21 09:36:00,49.9,46.8,30.03,NNE,17,6.0,10.0,89,0.04,,---,0.03,VWS V14.00,2013-10-21 14:36:00,
2013-10-21 09:41:00,49.9,46.8,30.03,NNE,14,5.0,11.0,89,0.00,,---,0.03,VWS V14.00,2013-10-21 14:41:00,
2013-10-21 09:46:00,50.0,46.9,30.03,North,355,5.0,11.0,89,0.00,,---,0.03,VWS V14.00,2013-10-21 14:46:00,
2013-10-21 09:51:00,50.1,47.0,30.04,North,360,12.0,12.0,89,0.00,,---,0.03,VWS V14.00,2013-10-21 14:51:00,
2013-10-21 09:56:00,50.1,47.0,30.04,North,5,8.0,10.0,89,0.00,,---,0.03,VWS V14.00,2013-10-21 14:56:00,
2013-10-21 10:01:00,50.1,47.0,30.05,North,5,4.0,12.0,89,0.00,,---,0.03,VWS V14.00,2013-10-21 15:01:00,
2013-10-21 10:06:00,50.2,47.1,30.04,North,5,11.0,12.0,89,0.00,,---,0.03,VWS V14.00,2013-10-21 15:06:00,
2013-10-21 10:11:00,50.2,47.1,30.04,North,360,4.0,12.0,89,0.00,,---,0.03,VWS V14.00,2013-10-21 15:11:00,
2013-10-21 10:16:00,50.3,47.2,30.05,North,9,7.0,12.0,89,0.00,,---,0.04,VWS V14.00,2013-10-21 15:16:00,
2013-10-21 10:21:00,50.2,47.1,30.05,NNE,16,4.0,12.0,89,0.00,,---,0.04,VWS V14.00,2013-10-21 15:21:00,
2013-10-21 10:26:00,50.1,47.0,30.05,North,5,10.0,13.0,89,0.00,,---,0.04,VWS V14.00,2013-10-21 15:26:00,
2013-10-21 10:31:00,50.1,46.7,30.05,NNE,20,6.0,14.0,88,0.00,,---,0.04,VWS V14.00,2013-10-21 15:31:00,
2013-10-21 10:36:00,50.2,46.8,30.05,NNE,15,8.0,13.0,88,0.00,,---,0.04,VWS V14.00,2013-10-21 15:36:00,
2013-10-21 10:41:00,50.4,46.7,30.05,NNE,12,5.0,12.0,87,0.00,,---,0.04,VWS V14.00,2013-10-21 15:41:00,
2013-10-21 10:46:00,50.6,46.9,30.05,North,9,8.0,13.0,87,0.00,,---,0.04,VWS V14.00,2013-10-21 15:46:00,
2013-10-21 10:51:00,50.9,47.2,30.05,NNE,23,11.0,12.0,87,0.00,,---,0.04,VWS V14.00,2013-10-21 15:51:00,
2013-10-21 10:56:00,51.3,47.3,30.05,North,5,12.0,17.0,86,0.00,,---,0.04,VWS V14.00,2013-10-21 15:56:00,
2013-10-21 11:01:00,51.4,47.0,30.05,NNE,27,8.0,13.0,85,0.00,,---,0.04,VWS V14.00,2013-10-21 16:01:00,
2013-10-21 11:06:00,51.4,46.4,30.05,North,360,9.0,16.0,83,0.00,,---,0.04,VWS V14.00,2013-10-21 16:06:00,
2013-10-21 11:11:00,51.6,46.3,30.06,North,10,12.0,14.0,82,0.00,,---,0.04,VWS V14.00,2013-10-21 16:11:00,
2013-10-21 11:16:00,51.6,46.3,30.06,North,350,11.0,16.0,82,0.00,,---,0.04,VWS V14.00,2013-10-21 16:16:00,
2013-10-21 11:21:00,51.7,45.7,30.06,North,9,9.0,18.0,80,0.00,,---,0.04,VWS V14.00,2013-10-21 16:21:00,
2013-10-21 11:26:00,51.7,45.4,30.06,NNE,19,9.0,15.0,79,0.00,,---,0.04,VWS V14.00,2013-10-21 16:26:00,
2013-10-21 11:31:00,51.7,45.4,30.06,North,360,13.0,13.0,79,0.00,,---,0.04,VWS V14.00,2013-10-21 16:31:00,
2013-10-21 11:36:00,51.7,45.1,30.06,NNE,14,10.0,19.0,78,0.00,,---,0.04,VWS V14.00,2013-10-21 16:36:00,
2013-10-21 11:41:00,51.7,44.7,30.06,North,9,16.0,23.0,77,0.00,,---,0.04,VWS V14.00,2013-10-21 16:41:00,
2013-10-21 11:46:00,51.8,44.8,30.06,North,355,10.0,17.0,77,0.00,,---,0.04,VWS V14.00,2013-10-21 16:46:00,
2013-10-21 11:51:00,51.9,44.6,30.06,North,360,12.0,18.0,76,0.00,,---,0.04,VWS V14.00,2013-10-21 16:51:00,
2013-10-21 11:56:00,52.1,44.4,30.06,North,5,13.0,18.0,75,0.00,,---,0.04,VWS V14.00,2013-10-21 16:56:00,
2013-10-21 12:01:00,52.2,44.2,30.06,NNE,13,10.0,17.0,74,0.00,,---,0.04,VWS V14.00,2013-10-21 17:01:00,
2013-10-21 12:06:00,52.3,43.9,30.06,North,5,10.0,19.0,73,0.00,,---,0.04,VWS V14.00,2013-10-21 17:06:00,
2013-10-21 12:11:00,52.4,43.7,30.06,NNE,12,10.0,18.0,72,0.00,,---,0.04,VWS V14.00,2013-10-21 17:11:00,
2013-10-21 12:16:00,52.3,43.2,30.06,North,360,12.0,15.0,71,0.00,,---,0.04,VWS V14.00,2013-10-21 17:16:00,
2013-10-21 12:21:00,52.3,42.8,30.06,North,355,5.0,17.0,70,0.00,,---,0.04,VWS V14.00,2013-10-21 17:21:00,
2013-10-21 12:26:00,52.3,42.8,30.06,North,5,9.0,13.0,70,0.00,,---,0.04,VWS V14.00,2013-10-21 17:26:00,
2013-10-21 12:31:00,52.3,42.8,30.06,North,5,11.0,15.0,70,0.00,,---,0.04,VWS V14.00,2013-10-21 17:31:00,
2013-10-21 12:36:00,52.4,42.5,30.06,North,5,7.0,16.0,69,0.00,,---,0.04,VWS V14.00,2013-10-21 17:36:00,
2013-10-21 12:41:00,52.5,41.9,30.06,North,355,11.0,17.0,67,0.00,,---,0.04,VWS V14.00,2013-10-21 17:41:00,
2013-10-21 12:46:00,52.5,41.9,30.06,North,360,15.0,15.0,67,0.00,,---,0.04,VWS V14.00,2013-10-21 17:46:00,
2013-10-21 12:51:00,52.5,41.9,30.06,North,355,8.0,18.0,67,0.00,,---,0.04,VWS V14.00,2013-10-21 17:51:00,
2013-10-21 12:56:00,52.4,41.8,30.06,NNE,15,9.0,16.0,67,0.00,,---,0.04,VWS V14.00,2013-10-21 17:56:00,
2013-10-21 13:01:00,52.3,41.3,30.06,North,355,10.0,16.0,66,0.00,,---,0.04,VWS V14.00,2013-10-21 18:01:00,
2013-10-21 13:06:00,52.3,41.3,30.06,North,355,8.0,15.0,66,0.00,,---,0.04,VWS V14.00,2013-10-21 18:06:00,
2013-10-21 13:11:00,52.3,40.9,30.06,North,5,10.0,14.0,65,0.00,,---,0.04,VWS V14.00,2013-10-21 18:11:00,
2013-10-21 13:16:00,52.4,41.0,30.06,North,9,10.0,11.0,65,0.00,,---,0.04,VWS V14.00,2013-10-21 18:16:00,
2013-10-21 13:21:00,52.4,40.6,30.06,NNE,22,7.0,14.0,64,0.00,,---,0.04,VWS V14.00,2013-10-21 18:21:00,
2013-10-21 13:26:00,52.3,40.5,30.05,NNE,16,11.0,13.0,64,0.00,,---,0.04,VWS V14.00,2013-10-21 18:26:00,
2013-10-21 13:31:00,52.3,40.1,30.05,North,10,7.0,13.0,63,0.00,,---,0.04,VWS V14.00,2013-10-21 18:31:00,
2013-10-21 13:36:00,52.2,40.0,30.05,North,10,3.0,12.0,63,0.00,,---,0.04,VWS V14.00,2013-10-21 18:36:00,
2013-10-21 13:41:00,52.1,39.9,30.05,NNE,17,5.0,13.0,63,0.00,,---,0.04,VWS V14.00,2013-10-21 18:41:00,
2013-10-21 13:46:00,52.0,40.6,30.05,North,360,5.0,12.0,65,0.00,,---,0.04,VWS V14.00,2013-10-21 18:46:00,
2013-10-21 13:51:00,51.9,40.5,30.04,NNW,348,9.0,12.0,65,0.00,,---,0.04,VWS V14.00,2013-10-21 18:51:00,
2013-10-21 13:56:00,51.9,40.9,30.04,North,360,6.0,12.0,66,0.00,,---,0.04,VWS V14.00,2013-10-21 18:56:00,
2013-10-21 14:01:00,51.8,40.8,30.04,North,360,9.0,13.0,66,0.00,,---,0.04,VWS V14.00,2013-10-21 19:01:00,
2013-10-21 14:06:00,51.9,41.3,30.04,North,360,9.0,12.0,67,0.00,,---,0.04,VWS V14.00,2013-10-21 19:06:00,
2013-10-21 14:11:00,52.1,40.7,30.04,North,5,13.0,16.0,65,0.00,,---,0.04,VWS V14.00,2013-10-21 19:11:00,
2013-10-21 14:16:00,52.3,40.9,30.04,North,9,5.0,14.0,65,0.00,,---,0.04,VWS V14.00,2013-10-21 19:16:00,
2013-10-21 14:21:00,52.5,40.3,30.04,NNE,17,9.0,15.0,63,0.00,,---,0.04,VWS V14.00,2013-10-21 19:21:00,
2013-10-21 14:26:00,52.8,40.2,30.04,North,360,12.0,14.0,62,0.00,,---,0.04,VWS V14.00,2013-10-21 19:26:00,
2013-10-21 14:31:00,53.1,40.0,30.04,North,355,10.0,14.0,61,0.00,,---,0.04,VWS V14.00,2013-10-21 19:31:00,
2013-10-21 14:36:00,53.3,40.6,30.04,North,5,7.0,12.0,62,0.00,,---,0.04,VWS V14.00,2013-10-21 19:36:00,
2013-10-21 14:41:00,53.7,40.6,30.03,NNE,26,5.0,14.0,61,0.00,,---,0.04,VWS V14.00,2013-10-21 19:41:00,
2013-10-21 14:46:00,54.1,40.5,30.03,NNE,17,4.0,10.0,60,0.00,,---,0.04,VWS V14.00,2013-10-21 19:46:00,
2013-10-21 14:51:00,54.6,41.0,30.03,NNE,24,4.0,10.0,60,0.00,,---,0.04,VWS V14.00,2013-10-21 19:51:00,
2013-10-21 14:56:00,55.0,41.0,30.03,NNE,16,10.0,13.0,59,0.00,,---,0.04,VWS V14.00,2013-10-21 19:56:00,
2013-10-21 15:01:00,55.1,40.2,30.03,NNE,18,12.0,14.0,57,0.00,,---,0.04,VWS V14.00,2013-10-21 20:01:00,
2013-10-21 15:06:00,55.4,39.5,30.03,NNE,24,3.0,14.0,55,0.00,,---,0.04,VWS V14.00,2013-10-21 20:06:00,
2013-10-21 15:11:00,56.0,40.5,30.03,NE,40,10.0,13.0,56,0.00,,---,0.04,VWS V14.00,2013-10-21 20:11:00,
2013-10-21 15:16:00,56.4,40.0,30.03,NNE,15,6.0,14.0,54,0.00,,---,0.04,VWS V14.00,2013-10-21 20:16:00,
2013-10-21 15:21:00,56.8,40.3,30.03,NNE,15,7.0,12.0,54,0.00,,---,0.04,VWS V14.00,2013-10-21 20:21:00,
2013-10-21 15:26:00,57.7,40.7,30.03,NNE,26,4.0,12.0,53,0.00,,---,0.04,VWS V14.00,2013-10-21 20:26:00,
2013-10-21 15:31:00,58.5,40.5,30.03,North,5,15.0,15.0,51,0.00,,---,0.04,VWS V14.00,2013-10-21 20:31:00,
2013-10-21 15:36:00,58.7,39.6,30.03,NNE,18,10.0,15.0,49,0.00,,---,0.04,VWS V14.00,2013-10-21 20:36:00,
2013-10-21 15:41:00,58.8,39.7,30.03,NNE,24,3.0,15.0,49,0.00,,---,0.04,VWS V14.00,2013-10-21 20:41:00,
2013-10-21 15:46:00,59.0,40.4,30.03,NNE,27,9.0,10.0,50,0.00,,---,0.04,VWS V14.00,2013-10-21 20:46:00,
2013-10-21 15:51:00,59.0,40.9,30.03,NNE,25,4.0,9.0,51,0.00,,---,0.04,VWS V14.00,2013-10-21 20:51:00,
2013-10-21 15:56:00,59.0,40.4,30.03,NNE,23,3.0,9.0,50,0.00,,---,0.04,VWS V14.00,2013-10-21 20:56:00,
2013-10-21 16:01:00,59.1,40.5,30.03,North,355,7.0,11.0,50,0.00,,---,0.04,VWS V14.00,2013-10-21 21:01:00,
2013-10-21 16:06:00,59.6,41.0,30.03,North,355,9.0,13.0,50,0.00,,---,0.04,VWS V14.00,2013-10-21 21:06:00,
2013-10-21 16:11:00,59.8,41.1,30.03,North,355,9.0,12.0,50,0.00,,---,0.04,VWS V14.00,2013-10-21 21:11:00,
2013-10-21 16:16:00,60.0,40.3,30.03,NNE,24,4.0,11.0,48,0.00,,---,0.04,VWS V14.00,2013-10-21 21:16:00,
2013-10-21 16:21:00,59.9,40.7,30.04,North,360,6.0,9.0,49,0.00,,---,0.04,VWS V14.00,2013-10-21 21:21:00,
2013-10-21 16:26:00,59.9,40.7,30.04,North,355,7.0,11.0,49,0.00,,---,0.04,VWS V14.00,2013-10-21 21:26:00,
2013-10-21 16:31:00,59.7,41.0,30.04,North,355,2.0,7.0,50,0.00,,---,0.04,VWS V14.00,2013-10-21 21:31:00,
2013-10-21 16:36:00,59.5,40.9,30.04,North,360,4.0,10.0,50,0.00,,---,0.04,VWS V14.00,2013-10-21 21:36:00,
2013-10-21 16:41:00,59.3,40.7,30.04,NNE,14,6.0,10.0,50,0.00,,---,0.04,VWS V14.00,2013-10-21 21:41:00,
2013-10-21 16:46:00,59.1,40.5,30.04,North,9,6.0,9.0,50,0.00,,---,0.04,VWS V14.00,2013-10-21 21:46:00,
2013-10-21 16:51:00,59.0,40.4,30.04,North,9,8.0,8.0,50,0.00,,---,0.04,VWS V14.00,2013-10-21 21:51:00,
2013-10-21 16:56:00,59.0,40.4,30.04,North,9,3.0,10.0,50,0.00,,---,0.04,VWS V14.00,2013-10-21 21:56:00,
2013-10-21 17:01:00,58.8,40.2,30.05,North,5,5.0,10.0,50,0.00,,---,0.04,VWS V14.00,2013-10-21 22:01:00,
2013-10-21 17:06:00,58.6,39.0,30.05,North,355,3.0,11.0,48,0.00,,---,0.04,VWS V14.00,2013-10-21 22:06:00,
2013-10-21 17:11:00,58.4,38.8,30.05,North,360,5.0,10.0,48,0.00,,---,0.04,VWS V14.00,2013-10-21 22:11:00,
2013-10-21 17:16:00,58.1,38.5,30.05,North,355,3.0,9.0,48,0.00,,---,0.04,VWS V14.00,2013-10-21 22:16:00,
2013-10-21 17:21:00,58.0,39.5,30.05,North,9,5.0,7.0,50,0.00,,---,0.04,VWS V14.00,2013-10-21 22:21:00,
2013-10-21 17:26:00,57.8,38.8,30.05,North,360,3.0,6.0,49,0.00,,---,0.04,VWS V14.00,2013-10-21 22:26:00,
2013-10-21 17:31:00,57.6,39.1,30.05,North,360,2.0,6.0,50,0.00,,---,0.04,VWS V14.00,2013-10-21 22:31:00,
2013-10-21 17:36:00,57.4,39.4,30.05,North,360,5.0,7.0,51,0.00,,---,0.04,VWS V14.00,2013-10-21 22:36:00,
2013-10-21 17:41:00,57.2,39.2,30.05,North,5,3.0,7.0,51,0.00,,---,0.04,VWS V14.00,2013-10-21 22:41:00,
2013-10-21 17:46:00,57.0,39.6,30.05,North,5,1.0,6.0,52,0.00,,---,0.04,VWS V14.00,2013-10-21 22:46:00,
2013-10-21 17:51:00,56.9,39.5,30.05,North,5,6.0,6.0,52,0.00,,---,0.04,VWS V14.00,2013-10-21 22:51:00,
2013-10-21 17:55:00,56.8,39.9,30.05,North,5,1.0,5.0,53,0.00,,---,0.04,VWS V14.00,2013-10-21 22:55:00,
2013-10-21 18:00:00,56.6,39.7,30.05,North,5,3.0,6.0,53,0.00,,---,0.04,VWS V14.00,2013-10-21 23:00:00,
2013-10-21 18:05:00,56.6,39.7,30.05,North,9,2.0,4.0,53,0.00,,---,0.04,VWS V14.00,2013-10-21 23:05:00,
2013-10-21 18:10:00,56.7,40.3,30.05,North,9,1.0,3.0,54,0.00,,---,0.04,VWS V14.00,2013-10-21 23:10:00,
2013-10-21 18:15:00,56.7,40.3,30.05,North,9,1.0,3.0,54,0.00,,---,0.04,VWS V14.00,2013-10-21 23:15:00,
2013-10-21 18:20:00,56.6,40.2,30.06,North,9,3.0,3.0,54,0.00,,---,0.04,VWS V14.00,2013-10-21 23:20:00,
2013-10-21 18:25:00,56.4,39.5,30.06,North,9,0.0,4.0,53,0.00,,---,0.04,VWS V14.00,2013-10-21 23:25:00,
2013-10-21 18:30:00,56.1,39.7,30.06,North,9,0.0,3.0,54,0.00,,---,0.04,VWS V14.00,2013-10-21 23:30:00,
2013-10-21 18:35:00,55.8,39.9,30.06,North,9,1.0,3.0,55,0.00,,---,0.04,VWS V14.00,2013-10-21 23:35:00,
2013-10-21 18:40:00,55.4,39.5,30.06,North,9,2.0,3.0,55,0.00,,---,0.04,VWS V14.00,2013-10-21 23:40:00,
2013-10-21 18:45:00,55.0,39.6,30.06,North,9,1.0,3.0,56,0.00,,---,0.04,VWS V14.00,2013-10-21 23:45:00,
2013-10-21 18:50:00,54.6,39.7,30.06,North,9,0.0,1.0,57,0.00,,---,0.04,VWS V14.00,2013-10-21 23:50:00,
2013-10-21 18:55:00,54.3,39.4,30.06,North,9,0.0,0.0,57,0.00,,---,0.04,VWS V14.00,2013-10-21 23:55:00,
2013-10-21 19:00:00,54.1,39.7,30.06,North,9,0.0,0.0,58,0.00,,---,0.04,VWS V14.00,2013-10-22 00:00:00,
2013-10-21 19:05:00,53.8,39.4,30.06,North,9,0.0,0.0,58,0.00,,---,0.04,VWS V14.00,2013-10-22 00:05:00,
2013-10-21 19:10:00,53.5,40.0,30.06,North,9,0.0,0.0,60,0.00,,---,0.04,VWS V14.00,2013-10-22 00:10:00,
2013-10-21 19:15:00,53.2,40.1,30.06,North,9,0.0,0.0,61,0.00,,---,0.04,VWS V14.00,2013-10-22 00:15:00,
2013-10-21 19:20:00,52.8,40.2,30.06,North,9,0.0,0.0,62,0.00,,---,0.04,VWS V14.00,2013-10-22 00:20:00,
2013-10-21 19:25:00,52.2,40.0,30.06,North,9,0.0,0.0,63,0.00,,---,0.04,VWS V14.00,2013-10-22 00:25:00,
2013-10-21 19:30:00,51.7,39.9,30.06,North,9,0.0,0.0,64,0.00,,---,0.04,VWS V14.00,2013-10-22 00:30:00,
2013-10-21 19:35:00,51.2,39.5,30.07,North,9,0.0,0.0,64,0.00,,---,0.04,VWS V14.00,2013-10-22 00:35:00,
2013-10-21 19:40:00,50.7,39.8,30.07,North,9,0.0,0.0,66,0.00,,---,0.04,VWS V14.00,2013-10-22 00:40:00,
2013-10-21 19:45:00,50.2,39.3,30.07,North,9,0.0,0.0,66,0.00,,---,0.04,VWS V14.00,2013-10-22 00:45:00,
2013-10-21 19:50:00,49.8,39.3,30.07,North,9,0.0,0.0,67,0.00,,---,0.04,VWS V14.00,2013-10-22 00:50:00,
2013-10-21 19:55:00,49.3,39.2,30.08,North,9,0.0,0.0,68,0.00,,---,0.04,VWS V14.00,2013-10-22 00:55:00,
2013-10-21 20:00:00,48.8,39.1,30.07,North,9,0.0,0.0,69,0.00,,---,0.04,VWS V14.00,2013-10-22 01:00:00,
2013-10-21 20:05:00,48.1,39.2,30.07,North,9,0.0,0.0,71,0.00,,---,0.04,VWS V14.00,2013-10-22 01:05:00,
2013-10-21 20:10:00,47.5,39.3,30.07,North,9,0.0,0.0,73,0.00,,---,0.04,VWS V14.00,2013-10-22 01:10:00,
2013-10-21 20:15:00,47.1,39.2,30.08,North,9,0.0,0.0,74,0.00,,---,0.04,VWS V14.00,2013-10-22 01:15:00,
2013-10-21 20:20:00,46.6,39.1,30.08,North,9,0.0,0.0,75,0.00,,---,0.04,VWS V14.00,2013-10-22 01:20:00,
2013-10-21 20:25:00,46.1,39.0,30.08,North,9,0.0,0.0,76,0.00,,---,0.04,VWS V14.00,2013-10-22 01:25:00,
2013-10-21 20:30:00,45.7,38.9,30.08,North,9,0.0,0.0,77,0.00,,---,0.04,VWS V14.00,2013-10-22 01:30:00,
2013-10-21 20:35:00,45.5,38.7,30.08,North,9,0.0,0.0,77,0.00,,---,0.04,VWS V14.00,2013-10-22 01:35:00,
2013-10-21 20:40:00,45.3,38.5,30.08,North,9,0.0,0.0,77,0.00,,---,0.04,VWS V14.00,2013-10-22 01:40:00,
2013-10-21 20:45:00,45.1,38.7,30.08,North,9,0.0,0.0,78,0.00,,---,0.04,VWS V14.00,2013-10-22 01:45:00,
2013-10-21 20:50:00,45.1,38.7,30.08,North,9,0.0,0.0,78,0.00,,---,0.04,VWS V14.00,2013-10-22 01:50:00,
2013-10-21 20:54:00,45.1,38.7,30.08,North,9,0.0,0.0,78,0.00,,---,0.04,VWS V14.00,2013-10-22 01:54:00,
2013-10-21 20:59:00,45.2,38.8,30.08,North,9,0.0,0.0,78,0.00,,---,0.04,VWS V14.00,2013-10-22 01:59:00,
2013-10-21 21:04:00,45.2,38.8,30.08,North,9,0.0,0.0,78,0.00,,---,0.04,VWS V14.00,2013-10-22 02:04:00,
2013-10-21 21:09:00,45.2,38.8,30.08,North,9,0.0,0.0,78,0.00,,---,0.04,VWS V14.00,2013-10-22 02:09:00,
2013-10-21 21:14:00,45.2,38.4,30.08,North,9,0.0,0.0,77,0.00,,---,0.04,VWS V14.00,2013-10-22 02:14:00,
2013-10-21 21:19:00,45.1,38.7,30.09,North,9,0.0,0.0,78,0.00,,---,0.04,VWS V14.00,2013-10-22 02:19:00,
2013-10-21 21:24:00,45.0,38.9,30.09,North,9,0.0,0.0,79,0.00,,---,0.04,VWS V14.00,2013-10-22 02:24:00,
2013-10-21 21:29:00,45.0,38.9,30.08,North,9,0.0,0.0,79,0.00,,---,0.04,VWS V14.00,2013-10-22 02:29:00,
2013-10-21 21:34:00,44.8,39.0,30.08,North,9,0.0,0.0,80,0.00,,---,0.04,VWS V14.00,2013-10-22 02:34:00,
2013-10-21 21:39:00,44.5,38.7,30.08,North,9,0.0,0.0,80,0.00,,---,0.04,VWS V14.00,2013-10-22 02:39:00,
2013-10-21 21:44:00,44.0,38.2,30.09,North,9,0.0,0.0,80,0.00,,---,0.04,VWS V14.00,2013-10-22 02:44:00,
2013-10-21 21:49:00,43.6,37.8,30.09,North,9,0.0,0.0,80,0.00,,---,0.04,VWS V14.00,2013-10-22 02:49:00,
2013-10-21 21:54:00,43.1,37.7,30.09,North,9,0.0,0.0,81,0.00,,---,0.04,VWS V14.00,2013-10-22 02:54:00,
2013-10-21 21:59:00,42.9,37.5,30.09,North,9,0.0,0.0,81,0.00,,---,0.04,VWS V14.00,2013-10-22 02:59:00,
2013-10-21 22:04:00,42.7,37.6,30.09,North,9,0.0,0.0,82,0.00,,---,0.04,VWS V14.00,2013-10-22 03:04:00,
2013-10-21 22:09:00,42.5,37.4,30.09,North,9,0.0,0.0,82,0.00,,---,0.04,VWS V14.00,2013-10-22 03:09:00,
2013-10-21 22:14:00,42.3,37.5,30.09,North,9,0.0,0.0,83,0.00,,---,0.04,VWS V14.00,2013-10-22 03:14:00,
2013-10-21 22:19:00,42.2,37.4,30.09,North,9,0.0,0.0,83,0.00,,---,0.04,VWS V14.00,2013-10-22 03:19:00,
2013-10-21 22:24:00,42.0,37.2,30.09,North,9,0.0,0.0,83,0.00,,---,0.04,VWS V14.00,2013-10-22 03:24:00,
2013-10-21 22:29:00,41.8,37.0,30.09,North,9,0.0,0.0,83,0.00,,---,0.04,VWS V14.00,2013-10-22 03:29:00,
2013-10-21 22:34:00,41.4,36.9,30.09,North,9,0.0,0.0,84,0.00,,---,0.04,VWS V14.00,2013-10-22 03:34:00,
2013-10-21 22:39:00,41.0,36.5,30.09,North,9,0.0,0.0,84,0.00,,---,0.04,VWS V14.00,2013-10-22 03:39:00,
2013-10-21 22:44:00,40.6,36.5,30.09,North,9,0.0,0.0,85,0.00,,---,0.04,VWS V14.00,2013-10-22 03:44:00,
2013-10-21 22:49:00,40.5,36.3,30.09,North,9,0.0,0.0,85,0.00,,---,0.04,VWS V14.00,2013-10-22 03:49:00,
2013-10-21 22:54:00,40.5,36.7,30.09,North,9,0.0,0.0,86,0.00,,---,0.04,VWS V14.00,2013-10-22 03:54:00,
2013-10-21 22:59:00,40.3,36.5,30.09,North,9,0.0,0.0,86,0.00,,---,0.04,VWS V14.00,2013-10-22 03:59:00,
2013-10-21 23:01:00,40.3,36.5,30.09,North,9,0.0,0.0,86,0.00,,---,0.04,VWS V14.00,2013-10-22 04:01:00,
2013-10-21 23:06:00,40.2,36.7,30.09,North,9,0.0,0.0,87,0.00,,---,0.04,VWS V14.00,2013-10-22 04:06:00,
2013-10-21 23:11:00,40.3,36.8,30.09,North,9,0.0,0.0,87,0.00,,---,0.04,VWS V14.00,2013-10-22 04:11:00,
2013-10-21 23:16:00,40.2,36.7,30.09,North,9,0.0,0.0,87,0.00,,---,0.04,VWS V14.00,2013-10-22 04:16:00,
2013-10-21 23:21:00,40.2,36.7,30.09,North,9,0.0,0.0,87,0.00,,---,0.04,VWS V14.00,2013-10-22 04:21:00,
2013-10-21 23:26:00,40.0,36.5,30.09,North,9,0.0,0.0,87,0.00,,---,0.04,VWS V14.00,2013-10-22 04:26:00,
2013-10-21 23:31:00,39.9,36.3,30.09,North,9,0.0,0.0,87,0.00,,---,0.04,VWS V14.00,2013-10-22 04:31:00,
2013-10-21 23:36:00,39.7,36.2,30.09,North,9,0.0,0.0,87,0.00,,---,0.04,VWS V14.00,2013-10-22 04:36:00,
2013-10-21 23:41:00,39.5,36.0,30.09,North,9,0.0,0.0,87,0.00,,---,0.04,VWS V14.00,2013-10-22 04:41:00,
2013-10-21 23:46:00,39.4,35.9,30.09,North,9,0.0,0.0,87,0.00,,---,0.04,VWS V14.00,2013-10-22 04:46:00,
2013-10-21 23:51:00,39.3,35.8,30.09,North,9,0.0,0.0,87,0.00,,---,0.04,VWS V14.00,2013-10-22 04:51:00,
2013-10-21 23:56:00,39.2,35.7,30.09,North,9,0.0,0.0,87,0.00,,---,0.04,VWS V14.00,2013-10-22 04:56:00,